Showing default

FLOCK 4BE 5, 60559

Orbit data source: Space-Track

FLOCK 4BE 5, 60559 is a payload satellite owned by Planet (US) in SSO that was launched on Fri, 16 Aug 2024 UTC via an FALCON 9 launch vehicle from the Air Force Western Test Range (AFWTR). Payload-class satellites include a variety of spacecraft equipped with specific instruments for various scientific and technological missions. These include communications satellites like Starlink; space stations such as the ISS; scientific satellites like the Hubble; Earth observation satellites from companies like Planet Labs, Umbra, and HawkEye 360; GPS; miniature CubeSats for education and research; and military/defense satellites.

Loading next visibility...
Identifier
60559, 2024-149CV
Orbit
SSO
Country
Flag of USUS
Related business
Manufacturer
Planet
Mission
Operational Commercial Imaging
Bus & Motor
CUBESAT 3U, Unknown motor
Mass
5.7 kg wet, 5.7 kg dry
Launch date (UTC)
2024-08-16 (2 years ago)
Launch vehicle
FALCON 9
Launch site
Air Force Western Test Range (AFWTR)
Object type
Payload
Rocket body
Debris
Shape & HBR
Box + 2 Pan, 1.0 m
Radar Cross Section
0.072 m², Medium (>0.1 m² and < 1m²)

Expand to show TLE details & history
Last TLE update: 17 hours ago

TLE from 17 hours ago
0 FLOCK 4BE 5
1 60559U 24149CV  26111.80157680  .00014985  00000-0  39461-3 0  9994
2 60559  97.3836 195.3317 0004687 134.1867 225.9764 15.38622783 93605
Epoch: 2026-04-21T19:14Z
TLE epoch observation values (Epoch: 2026-04-21T19:14:16.235Z)
Latitude
-0.00003°
Longitude
56.89192°
Altitude
455.523 km
Speed
7.638 km/s
True Right ascension
13h 01m 19s
True Declination
0° 00' 00"
Sunlit
Object was in full shadow at epoch
Visualization orbit readout
Latitude
Unknown
Longitude
Unknown
Altitude
Unknown
Speed
Unknown
Apparent Right ascension
Unknown
Apparent Declination
Unknown
Sunlit
N/A
Visualization observer readout
Local Sidereal Time
18:58:27
Azimuth
Unknown
Elevation
Unknown
Doppler factor
Unknown
Orbital elements
Apogee altitude
450.32 km
Perigee altitude
443.922 km
Semi-major axis
6,825.258 km
Eccentricity
0.00047
Inclination
97.3836°
RAAN
195.3317°
Arg. of periapsis
134.1867°
True anomaly
225.9378°
Mean anomaly
225.9764°
Eccentric anomaly
225.9571°
Mean motion
3.84915 °/min
Orbital period
93.53 mins
BSTAR
0.00039461
Loading maneuver chart data...
Computing Atmospheric mass density...
Loading historical data...
Loading historical data...
Loading historical data...
Loading historical data...
Loading historical data...
Loading historical data...
Loading historical data...

Documentation

Showing up to 5 results
|